[[{"header":{"parameterUnit":"m.s-1","parameterCategory":1,"la1":30.2991,"la2":30.254,"lo1":-89.0895,"lo2":-89.0444,"dy":0.0017,"dx":0.0017,"nx":28,"ny":28,"refTime":"2023-07-31T03:00:00:Z","depth":0,"parameterNumber":2,"parameterNumberName":"U-component_of_WINDS"},"data":[0,0,0,0,0,0,0,0,0,0,0,0,0,0,0,0,0,0,0,0,0,0,0,0,0,0,0,0,0,0,0,0,0,0,0,0,0,0,0,0,0,0,0,0,0,0,0,0,0,0,0,0,0,0,0,0,0,0,0.9697,0.9698,0,0.9818,0.982,0.9821,0.9846,0.9846,0.9845,0.9844,0.9967,0.9971,0.9975,0,0,0,0,0,0,0,0,0,0,0,0,0,0.9487,0.949,0.9697,0.9699,0.97,0.9818,0.982,0.9821,0.9847,0.9846,0.9844,0.9843,0.9966,0.9971,0.9976,0,0,0,0,0,0,0,0,0,0,0,0,0,0.959,0.9492,0.9697,0.9727,0.9731,0.9818,0.982,0.9822,0.9847,0.9845,0.9844,0.9843,0.9964,0.997,0.9976,1.0041,0,0,0.9995,0.9998,0,0,0,0,0,0,0,0,0.9584,0.9598,0.9721,0.9725,0.973,0.9816,0.9791,0.9895,0.9847,0.9803,0.9844,0.9842,0.9918,0.9928,0.9953,1.0047,1.0052,0.9996,0.9999,1.0002,1.0004,0,0,0,0,0,0,0,0.9577,0.9592,0.9745,0.9723,0.9728,0.9734,0.9747,0.9811,0.9866,0.9807,0.9809,0.9823,0.992,0.9947,0.9956,1.0054,0.9995,1.0001,1.0005,1.0007,1.0206,1.0208,0,0,0,0,0,0,0.9564,0.9586,0.9741,0.9749,0.9652,0.9739,0.9754,0.979,0.9866,0.9876,0.9824,0.9823,0.9937,0.9949,0.9961,1.0041,1.0002,1.0008,1.0011,1.0205,1.0207,1.0208,0,0,0,0,0,0,0.956,0.9578,0.9736,0.9668,0.9689,0.9744,0.9784,0.9793,0.982,0.9879,0.9889,0.9842,0.9937,0.9952,1.0021,1.0046,1.0011,1.0016,1.0203,1.0205,1.0207,1.0203,0,0,0,0,0,0,0.9554,0.9576,0.9602,0.9669,0.9692,0.9795,0.9786,0.9796,0.9831,0.9832,0.9898,0.9908,0.9937,1.0012,1.0027,1.0054,1.0021,1.0201,1.0204,1.0207,1.0201,1.0205,1.0208,0,0,0,0,0,0.9546,0.9596,0.9603,0.9622,0.9725,0.9796,0.981,0.9842,0.9833,0.9859,0.9896,0.9906,1.0041,1.0018,1.0036,1.0065,1.0199,1.0203,1.0206,1.02,1.0204,1.0208,0,0,0,0,0,0,0.953,0.9605,0.9614,0.9687,0.9735,0.98,0.9834,0.9846,0.9898,0.9896,0.9934,0.9949,1.0015,1.0047,1.0021,1.0132,1.012,1.0127,1.0108,1.0113,1.0117,1.0108,1.0026,0,0,0,0,0,0.9536,0.9587,0.9649,0.9708,0.9731,0.9778,0.981,0.9831,0.9882,0.9903,0.9946,0.9995,1.0048,1.0083,1.0135,1.0206,1.0221,1.0235,1.0238,1.0241,1.0247,1.0286,1.0293,1.022,1.022,1.022,0,0,0.9546,0.9594,0.9624,0.9706,0.9745,0.9797,0.9795,0.985,0.9889,0.9911,0.9979,1.0011,1.0069,1.0139,1.0172,1.0167,1.027,1.0245,1.0247,1.0252,1.029,1.0297,1.0303,1.0222,1.0222,1.0222,0,0,0.9593,0.9634,0.9687,0.9726,0.9787,0.9818,0.983,0.9894,0.9916,0.9985,1.0002,1.0048,1.014,1.018,1.0212,1.0273,1.0283,1.0289,1.0307,1.0345,1.0351,1.0356,1.0377,1.0384,1.0294,1.0294,1.0294,0,0.9599,0.9678,0.9712,0.9767,0.9802,0.9824,0.9877,0.9914,0.9988,1.0012,1.0006,1.012,1.0161,1.024,1.0255,1.028,1.0295,1.0281,1.0347,1.0353,1.0358,1.0379,1.0386,1.0295,1.0295,1.0294,1.0294,0,0.9682,0.9737,0.9772,0.9843,0.9882,0.9935,0.9977,1.0013,1.003,1.0061,1.013,1.0179,1.0241,1.0262,1.0279,1.0343,1.0339,1.0339,1.0328,1.0365,1.0384,1.0393,1.0295,1.0295,1.0295,1.0295,0,0,0.9722,0.9811,0.9823,0.9855,0.9923,0.9966,1.002,1.0081,1.011,1.0161,1.0207,1.0283,1.0284,1.0321,1.0343,1.0376,1.042,1.0373,1.0375,1.0379,1.0493,1.0492,1.05,1.0428,1.0429,1.0431,1.0488,0,0.9776,0.9874,0.9906,0.9987,1.0038,1.0059,1.0106,1.0153,1.0183,1.023,1.0264,1.0317,1.0315,1.0337,1.0371,1.0407,1.0443,1.0404,1.047,1.0472,1.0455,1.0511,1.051,1.0562,1.0496,1.0497,1.0498,0,0.9853,0.9904,0.999,1.0051,1.0073,1.0115,1.0173,1.0218,1.0271,1.0291,1.0331,1.035,1.0407,1.0393,1.0471,1.0443,1.0472,1.0495,1.0497,1.0505,1.0487,1.0519,1.0579,1.0587,1.0511,1.051,1.0509,0,0.9873,0.9963,1.0026,1.0053,1.0126,1.0155,1.0186,1.0238,1.0272,1.0323,1.0345,1.0402,1.0433,1.0476,1.051,1.0497,1.0585,1.0574,1.0603,1.0602,1.0621,1.0619,1.0686,1.064,1.064,1.064,1.064,0,0.993,0.9981,1.0036,1.0075,1.0133,1.0169,1.0226,1.0258,1.0304,1.0349,1.0371,1.0413,1.0455,1.0503,1.053,1.059,1.0604,1.0621,1.0628,1.0619,1.0617,1.0639,1.0636,1.0642,1.0641,1.0641,1.0641,0,0.9962,1.0001,1.0071,1.0134,1.0151,1.0191,1.0244,1.0282,1.0314,1.037,1.0386,1.0435,1.0491,1.053,1.0602,1.062,1.0686,1.0692,1.0668,1.0671,1.0698,1.0695,1.0781,1.0794,1.0739,1.074,1.074,0,0.9995,1.0036,1.0103,1.0135,1.0166,1.0217,1.0252,1.0289,1.0325,1.0387,1.0418,1.0476,1.0524,1.0614,1.0656,1.0711,1.0718,1.0745,1.0727,1.0717,1.0718,1.0715,1.0719,1.0747,1.0748,1.0748,1.0748,0,1.0051,1.0068,1.0118,1.0175,1.0216,1.0263,1.0309,1.0334,1.0378,1.0417,1.0475,1.0513,1.0587,1.0644,1.0703,1.0735,1.0749,1.0754,1.0763,1.0755,1.0739,1.0747,1.0675,1.0751,1.0751,1.0751,1.0751,1.0751,1.0085,1.0121,1.0174,1.0229,1.0267,1.031,1.0349,1.0385,1.0434,1.0497,1.0516,1.0576,1.0627,1.0708,1.0741,1.0789,1.0786,1.08,1.0804,1.0807,1.0806,1.0732,1.08,1.08,1.0799,1.0799,1.0799,0,1.0141,1.0176,1.0226,1.029,1.0333,1.0342,1.0394,1.0429,1.0482,1.0529,1.0576,1.0642,1.0698,1.0744,1.0801,1.083,1.0838,1.0844,1.0842,1.0849,1.0805,1.0791,1.0836,1.0836,1.0836,1.0836,1.0836,1.0836,1.0175,1.0237,1.026,1.0341,1.0376,1.0435,1.0464,1.0503,1.0541,1.0614,1.066,1.069,1.0736,1.0796,1.0848,1.086,1.0879,1.0884,1.0897,1.0856,1.0852,1.0848,1.0835,1.0888,1.0888,1.0937,1.0937,1.0938]},{"header":{"parameterUnit":"m.s-1","parameterCategory":1,"la1":30.2991,"la2":30.254,"lo1":-89.0895,"lo2":-89.0444,"dy":0.0017,"dx":0.0017,"nx":28,"ny":28,"refTime":"2023-07-31T03:00:00:Z","depth":0,"parameterNumber":3,"parameterNumberName":"V-component_of_WINDS"},"data":[0,0,0,0,0,0,0,0,0,0,0,0,0,0,0,0,0,0,0,0,0,0,0,0,0,0,0,0,0,0,0,0,0,0,0,0,0,0,0,0,0,0,0,0,0,0,0,0,0,0,0,0,0,0,0,0,0,0,2.6732,2.673,0,2.66,2.6598,2.6597,2.6472,2.647,2.6469,2.6467,2.6327,2.6325,2.6323,0,0,0,0,0,0,0,0,0,0,0,0,0,2.687,2.6868,2.6732,2.673,2.6728,2.66,2.6598,2.6596,2.6472,2.647,2.6468,2.6466,2.6328,2.6325,2.6323,0,0,0,0,0,0,0,0,0,0,0,0,0,2.6781,2.6867,2.6732,2.6651,2.6642,2.66,2.6598,2.6596,2.6472,2.647,2.6468,2.6466,2.6329,2.6326,2.6322,2.6348,0,0,2.6312,2.631,0,0,0,0,0,0,0,0,2.6786,2.6776,2.6665,2.6657,2.6647,2.655,2.6595,2.6512,2.6473,2.6537,2.6467,2.6464,2.6403,2.6393,2.6373,2.6341,2.6335,2.6311,2.6309,2.6308,2.6307,0,0,0,0,0,0,0,2.6793,2.6781,2.6679,2.6663,2.6652,2.6619,2.6604,2.6579,2.6484,2.6531,2.6522,2.6508,2.6397,2.6377,2.6369,2.6333,2.6312,2.6308,2.6306,2.6305,2.6313,2.6315,0,0,0,0,0,0,2.6812,2.6787,2.6683,2.6675,2.6712,2.6619,2.6602,2.6583,2.6484,2.6467,2.651,2.6503,2.6384,2.6373,2.6364,2.6386,2.6308,2.6305,2.6303,2.631,2.6313,2.6316,0,0,0,0,0,0,2.6815,2.6804,2.6689,2.6729,2.6711,2.6619,2.6599,2.6582,2.6561,2.6469,2.6451,2.6507,2.6382,2.6369,2.6353,2.6379,2.6303,2.63,2.6308,2.6311,2.6314,2.6432,0,0,0,0,0,0,2.682,2.6806,2.6816,2.673,2.671,2.6682,2.6601,2.6581,2.6556,2.6545,2.6461,2.6445,2.6379,2.6358,2.6349,2.6373,2.6297,2.6305,2.6309,2.6313,2.6425,2.6439,2.645,0,0,0,0,0,2.6825,2.6854,2.6818,2.6806,2.6721,2.6684,2.6672,2.6597,2.6559,2.6568,2.6508,2.6447,2.6378,2.6358,2.6346,2.637,2.6303,2.6308,2.6313,2.6419,2.6436,2.645,0,0,0,0,0,0,2.6945,2.6841,2.68,2.6802,2.6753,2.6663,2.6672,2.6618,2.6577,2.6569,2.6476,2.6458,2.6452,2.6409,2.6388,2.6388,2.6332,2.6335,2.6417,2.6432,2.6444,2.6454,2.6295,0,0,0,0,0,2.6972,2.6952,2.6861,2.6872,2.6849,2.6765,2.6746,2.6693,2.6637,2.6616,2.6555,2.6502,2.6468,2.6447,2.6411,2.6418,2.6397,2.6428,2.6441,2.6452,2.6456,2.6454,2.6467,2.6332,2.6332,2.6332,0,0,2.7026,2.6967,2.696,2.6894,2.685,2.683,2.6749,2.6731,2.6714,2.6612,2.6594,2.6547,2.6481,2.6477,2.6472,2.6441,2.6488,2.6458,2.6468,2.6465,2.6461,2.6473,2.6485,2.6336,2.6335,2.6335,0,0,2.7116,2.707,2.7073,2.703,2.6964,2.6908,2.6909,2.6827,2.6792,2.6772,2.6695,2.6673,2.6617,2.6573,2.6543,2.6615,2.6557,2.6605,2.6671,2.6671,2.6681,2.669,2.6714,2.6724,2.6609,2.6609,2.6609,0,2.7192,2.716,2.7081,2.7067,2.704,2.6948,2.6949,2.6911,2.6836,2.6818,2.6785,2.6712,2.6661,2.6644,2.6662,2.6641,2.6638,2.6614,2.6687,2.6695,2.6702,2.6724,2.6733,2.6615,2.6615,2.6614,2.6614,0,2.7255,2.7234,2.7244,2.7176,2.7149,2.7143,2.7061,2.7043,2.6992,2.6938,2.6917,2.6854,2.6802,2.6794,2.6743,2.6769,2.6752,2.6704,2.6646,2.6722,2.6741,2.6749,2.6624,2.6622,2.662,2.6619,0,0,2.7417,2.7305,2.7309,2.7277,2.7197,2.7178,2.7166,2.7117,2.7103,2.7054,2.7041,2.6995,2.695,2.6916,2.6859,2.6859,2.6918,2.6811,2.6808,2.6832,2.694,2.6977,2.6988,2.6879,2.688,2.6881,2.6946,0,2.7492,2.7469,2.7396,2.7394,2.7372,2.7284,2.7273,2.7222,2.7171,2.7143,2.7086,2.7055,2.6998,2.6977,2.6973,2.6912,2.6938,2.6906,2.6864,2.6863,2.6883,2.6998,2.7036,2.71,2.6953,2.6954,2.6955,0,2.7577,2.7535,2.7531,2.7451,2.7439,2.7431,2.738,2.7355,2.7294,2.7256,2.7219,2.7156,2.7136,2.7083,2.7053,2.7033,2.7011,2.6978,2.6979,2.6972,2.6914,2.6993,2.7119,2.7129,2.6966,2.6965,2.6964,0,2.7694,2.7637,2.7626,2.7601,2.7507,2.7504,2.7464,2.7401,2.7376,2.733,2.7312,2.7264,2.7237,2.7201,2.7125,2.7093,2.7104,2.7044,2.707,2.7072,2.7076,2.7077,2.72,2.7064,2.7064,2.7063,2.7063,0,2.7786,2.7786,2.7677,2.7671,2.7668,2.7584,2.7583,2.7535,2.7479,2.746,2.738,2.7363,2.7265,2.7236,2.7177,2.716,2.7149,2.7117,2.7101,2.7124,2.7128,2.7108,2.7101,2.7066,2.7065,2.7065,2.7064,0,2.7917,2.7844,2.7826,2.7739,2.7717,2.7719,2.7643,2.7632,2.7576,2.7553,2.7542,2.7454,2.7416,2.7337,2.7277,2.7236,2.7234,2.7206,2.7255,2.7245,2.7276,2.7274,2.739,2.74,2.7259,2.726,2.7262,0,2.798,2.7978,2.7891,2.7873,2.7837,2.781,2.7783,2.77,2.7675,2.7605,2.7602,2.7558,2.7518,2.7461,2.739,2.7343,2.7312,2.7356,2.7305,2.7327,2.7312,2.7313,2.7311,2.7368,2.737,2.7371,2.7373,0,2.8099,2.8063,2.8029,2.7983,2.7954,2.7913,2.7867,2.7857,2.7761,2.7737,2.7698,2.7668,2.7606,2.7563,2.7505,2.7461,2.7401,2.7389,2.7393,2.7416,2.7445,2.7429,2.7286,2.7387,2.7386,2.7385,2.7384,2.7383,2.8197,2.8191,2.8129,2.8093,2.805,2.8009,2.7994,2.7937,2.7903,2.7848,2.7799,2.7764,2.77,2.7617,2.7577,2.7547,2.7517,2.7522,2.7524,2.7526,2.7535,2.745,2.7536,2.7535,2.7535,2.7534,2.7534,0,2.8311,2.8267,2.8235,2.8174,2.8146,2.8093,2.8039,2.8018,2.7989,2.7935,2.7898,2.7852,2.7809,2.7734,2.7684,2.7674,2.7645,2.7663,2.7663,2.7654,2.7565,2.7567,2.7688,2.7688,2.7688,2.7688,2.7688,2.7688,2.8368,2.8355,2.8311,2.8274,2.8228,2.8195,2.8169,2.8129,2.8086,2.8039,2.8004,2.7956,2.7893,2.7837,2.7794,2.7773,2.7758,2.7786,2.7756,2.7675,2.766,2.7646,2.7647,2.7783,2.7784,2.7846,2.7847,2.7848]}]]